Weather Roundup
Issued by NWS

Home | Current Version | Previous Version | Graphics & Text | Print | Product List | Glossary Off
Versions: 1 2 3 4 5 6 7 8 9 10 11 12 13 14 15 16 17 18 19 20 21 22 23 24 25 26 27 28 29 30 31 32 33 34 35 36 37 38 39 40 41 42 43 44 45 46 47 48 49 50

000
NZUS93 KARX 240410
HRRWXR

CURRENT HOURLY OBSERVATIONS ACROSS
MUCH OF THE UPPER MISSISSIPPI VALLEY
NATIONAL WEATHER SERVICE LA CROSSE WI
1100 PM CDT SAT MAY 23 2015


...SOUTHEAST MINNESOTA...


CITY           SKY/WX    TMP DP  RH WIND       PRES   REMARKS
ROCHESTER      CLOUDY    64  47  53 SE3       30.15S
ROCHESTER/MAYO CLOUDY    67  48  51 CALM      30.15R
WINONA         MOCLDY    61  52  72 CALM      30.14S
AUSTIN         CLOUDY    64  50  59 SE3       30.12S
ALBERT LEA     CLOUDY    64  52  63 CALM      30.12S
DODGE CENTER   CLOUDY    64  48  55 SE3       30.14S
PRESTON        CLOUDY    64  47  54 SE3       30.15S
OWATONNA       CLOUDY    64  48  55 E3        30.13S
FARIBAULT      CLOUDY    63  54  72 NE3       30.13S
$$

...ELSEWHERE IN MINNESOTA...


CITY           SKY/WX    TMP DP  RH WIND       PRES   REMARKS
MINNEAPOLIS    MOCLDY    63  46  54 E7        30.14R
INTNL FALLS    CLEAR     51  42  71 W3        30.09S
DULUTH         CLEAR     59  42  53 W5        30.16R
RED WING       MOCLDY    64  45  48 NE3       30.13R
REDWOOD FALLS  CLOUDY    62  50  64 NE7       30.12R
MANKATO        CLOUDY    63  54  72 E3        30.13R
WORTHINGTON    CLOUDY    63  50  63 SE5       30.11S
FAIRMONT       CLOUDY    64  48  55 SE5       30.11S
$$

...SOUTHWEST WISCONSIN...


CITY           SKY/WX    TMP DP  RH WIND       PRES   REMARKS
LA CROSSE      MOCLDY    63  49  60 SE5       30.14R
PRAIRIE DU CHI MOCLDY    60  48  65 CALM      30.14S
BOSCOBEL       PTCLDY    56  49  77 CALM      30.16S
LONE ROCK      PTCLDY    58  49  72 E3        30.17R
PLATTEVILLE    PTCLDY    65  47  50 E7        30.17S
FORT MC COY    MOCLDY    55  47  76 CALM      30.17S
CAMP DOUGLAS   MOCLDY    57  56  97 E2        30.16S
VIROQUA        FAIR      64  43  46 SE6       30.17S
WIS DELLS      PTCLDY    56  44  64 CALM      30.17S
$$

...ELSEWHERE IN WISCONSIN...


CITY           SKY/WX    TMP DP  RH WIND       PRES   REMARKS
MILWAUKEE      MOCLDY    59  41  51 SW3       30.20S
MADISON        MOCLDY    59  48  67 CALM      30.18R
GREEN BAY      PTCLDY    64  42  44 S7        30.19R
EAU CLAIRE     CLOUDY    60  45  57 NE6       30.15S
BLACK RVR FLS  FAIR      55  49  80 CALM      30.16R
MEDFORD        RAIN      57  50  78 CALM      30.20R
WAUSAU         CLOUDY    61  46  57 CALM      30.17S
WIS RAPIDS     MOCLDY    63  44  50 CALM      30.19R
MARSHFIELD     CLOUDY    63  45  51 NE3       30.18R
RICE LAKE      CLOUDY    60  52  76 CALM      30.18S
$$

...NORTHEAST IOWA...


CITY           SKY/WX    TMP DP  RH WIND       PRES   REMARKS
DECORAH        MOCLDY    64  48  55 SE3       30.14S
MASON CITY     CLOUDY    65  52  62 CALM      30.13R
CHARLES CITY   CLOUDY    66  46  48 SE6       30.14R
OELWEIN        CLOUDY    64  52  63 SE6       30.14F
$$

...ELSEWHERE IN IOWA...


CITY           SKY/WX    TMP DP  RH WIND       PRES   REMARKS
DES MOINES     CLOUDY    69  53  56 SE7       30.09F
IOWA CITY      CLOUDY    66  49  54 CALM      30.14F
FORT DODGE     CLOUDY    64  55  72 SE3       30.12R
$$

...NORTHERN ILLINOIS...


CITY           SKY/WX    TMP DP  RH WIND       PRES   REMARKS
CHICAGO-OHARE  PTCLDY    63  44  50 S5        30.20R
CHICAGO-MIDWAY PTCLDY    70  45  40 S6        30.21R
MOLINE         CLOUDY    61  49  64 E3        30.14F
ROCKFORD       MOCLDY    64  49  57 CALM      30.21R
PEORIA         CLOUDY    71  50  47 SE6       30.18S
$$

NOTE: "FAIR" INDICATES FEW OR NO CLOUDS BELOW 12,000 FEET WITH NO
SIGNIFICANT WEATHER AND/OR OBSTRUCTIONS TO VISIBILITY. WIND
SPEEDS ARE IN MILES-PER-HOUR.



USA.gov is the U.S. government's official web portal to all federal, state and local government web resources and services.